EW1566 Weather Reports


time (UTC)temp
F
wind
direction
speed
knots
gust
knots
rain 1hr
in
rain 24hr
in
rain mn
in
humidity
%
barometer
mb
20260504205103 79 22 13.9 17.4 0.00 0.00 0.00 19 1001.1
20260504204604 79 17 13.9 17.4 0.00 0.00 0.00 18 1001.1
20260504203603 79 5 12.2 17.4 0.00 0.00 0.00 18 1001.0
20260504203104 80 20 12.2 19.1 0.00 0.00 0.00 18 1001.0
20260504202106 80 4 12.2 21.7 0.00 0.00 0.00 18 1000.9
20260504201604 81 24 10.4 14.8 0.00 0.00 0.00 17 1000.9
20260504201104 81 5 11.3 17.4 0.00 0.00 0.00 16 1000.9
20260504200604 81 29 11.3 19.1 0.00 0.00 0.00 17 1001.0
20260504200105 81 38 7.8 13.0 0.00 0.00 0.00 14 1000.9
20260504195604 81 12 8.7 14.8 0.00 0.00 0.00 15 1000.9
20260504195103 80 28 8.7 13.0 0.00 0.00 0.00 17 1000.8
20260504194604 80 4 12.2 18.2 0.00 0.00 0.00 17 1000.7
20260504193604 80 36 12.2 15.6 0.00 0.00 0.00 17 1000.6
20260504193104 81 7 11.3 15.6 0.00 0.00 0.00 15 1000.7
20260504192605 83 22 11.3 17.4 0.00 0.00 0.00 13 1000.6
20260504191104 83 16 6.1 11.3 0.00 0.00 0.00 11 1000.6
20260504190604 82 303 10.4 13.0 0.00 0.00 0.00 10 1000.7
20260504190105 82 334 8.7 17.4 0.00 0.00 0.00 10 1000.8
20260504185604 82 323 7.0 10.4 0.00 0.00 0.00 10 1000.8
20260504185103 82 352 9.6 17.4 0.00 0.00 0.00 9 1000.9
20260504184603 82 12 8.7 17.4 0.00 0.00 0.00 10 1000.9
20260504184104 82 337 7.8 13.0 0.00 0.00 0.00 9 1001.0
20260504183605 81 357 5.2 10.4 0.00 0.00 0.00 9 1001.0
20260504183104 81 319 9.6 13.9 0.00 0.00 0.00 9 1001.1
20260504182604 81 337 8.7 14.8 0.00 0.00 0.00 9 1001.2
20260504182104 81 357 10.4 14.8 0.00 0.00 0.00 9 1001.2
20260504181604 81 358 8.7 17.4 0.00 0.00 0.00 10 1001.2
20260504181104 81 323 6.1 15.6 0.00 0.00 0.00 10 1001.2
20260504180605 81 342 7.8 12.2 0.00 0.00 0.00 9 1001.3
20260504180105 81 353 10.4 14.8 0.00 0.00 0.00 10 1001.3
20260504175605 81 9 7.8 14.8 0.00 0.00 0.00 11 1001.3
20260504175105 80 336 6.1 13.9 0.00 0.00 0.00 11 1001.3
20260504174604 80 353 8.7 12.2 0.00 0.00 0.00 11 1001.4
20260504174104 80 296 7.0 12.2 0.00 0.00 0.00 10 1001.5
20260504173105 80 307 8.7 15.6 0.00 0.00 0.00 10 1001.6
20260504172604 80 322 6.1 14.8 0.00 0.00 0.00 11 1001.7
20260504172103 80 332 6.1 13.9 0.00 0.00 0.00 11 1001.6
20260504171603 80 335 7.8 13.0 0.00 0.00 0.00 10 1001.6
20260504171106 80 5 10.4 14.8 0.00 0.00 0.00 11 1001.7
20260504170105 79 331 6.1 12.2 0.00 0.00 0.00 13 1001.8
20260504160105 74 311 6.1 10.4 0.00 0.00 0.00 24 1002.0
20260504151103 69 281 6.1 11.3 0.00 0.00 0.00 29 1002.4
20260504150603 69 281 8.7 11.3 0.00 0.00 0.00 28 1002.4
20260504150105 68 270 7.0 10.4 0.00 0.00 0.00 28 1002.4
20260504141103 63 321 7.8 11.3 0.00 0.00 0.00 35 1002.7
20260504140603 62 302 7.0 11.3 0.00 0.00 0.00 36 1002.7
20260504140105 62 309 7.8 11.3 0.00 0.00 0.00 36 1002.7
20260504130604 55 311 5.2 10.4 0.00 0.00 0.00 48 1002.4
20260504120105 49 289 2.6 2.6 0.00 0.00 0.00 52 1001.8
20260504110604 50 315 2.6 4.3 0.00 0.00 0.00 48 1001.5
20260504100604 55 143 0.0 0.0 0.00 0.00 0.00 40 1001.6
20260504100105 55 144 0.0 0.0 0.00 0.00 0.00 40 1001.6
20260504090106 55 148 0.9 2.6 0.00 0.00 0.00 41 1001.6
20260504081604 54 142 0.9 2.6 0.00 0.00 0.00 42 1002.2
20260504081104 54 187 0.9 2.6 0.00 0.00 0.00 41 1002.3
20260504080603 55 161 1.7 2.6 0.00 0.00 0.00 41 1002.3
20260504080104 55 169 1.7 2.6 0.00 0.00 0.00 40 1002.5
20260504070104 55 147 0.9 2.6 0.00 0.00 0.00 38 1003.8
20260504050604 59 125 1.7 2.6 0.00 0.00 0.00 32 1005.3
20260504050106 59 134 1.7 5.2 0.00 0.00 0.00 32 1005.4
20260504045604 59 132 2.6 4.3 0.00 0.00 0.00 32 1005.5
20260504045104 59 118 2.6 5.2 0.00 0.00 0.00 32 1005.5
20260504044604 59 125 4.3 6.1 0.00 0.00 0.00 32 1005.6
20260504044104 59 130 3.5 5.2 0.00 0.00 0.00 31 1005.6
20260504043604 59 111 4.3 7.0 0.00 0.00 0.00 31 1005.6
20260504043103 60 124 4.3 6.1 0.00 0.00 0.00 31 1005.7
20260504041604 59 94 5.2 7.0 0.00 0.00 0.00 31 1005.8
20260504041104 59 107 5.2 7.0 0.00 0.00 0.00 31 1005.8
20260504040604 59 111 3.5 4.3 0.00 0.00 0.00 31 1005.8
20260504040105 60 101 5.2 7.0 0.00 0.00 0.00 31 1005.9
20260504035604 60 103 5.2 6.1 0.00 0.00 0.00 31 1006.0
20260504035104 60 96 5.2 7.0 0.00 0.00 0.00 30 1006.1
20260504034603 61 89 6.1 7.8 0.00 0.00 0.00 30 1006.1
20260504034103 61 91 6.1 7.8 0.00 0.00 0.00 30 1006.2
20260504033105 61 82 7.0 8.7 0.00 0.00 0.00 30 1006.3
20260504032604 61 73 7.0 10.4 0.00 0.00 0.00 30 1006.3
20260504032105 62 66 7.8 10.4 0.00 0.00 0.00 30 1006.4
20260504031604 62 64 7.8 10.4 0.00 0.00 0.00 30 1006.5
20260504030604 63 73 7.0 8.7 0.00 0.00 0.00 30 1006.5
20260504030105 63 65 7.0 8.7 0.00 0.00 0.00 30 1006.6
20260504025604 63 60 7.0 8.7 0.00 0.00 0.00 29 1006.6
20260504023604 64 50 6.1 7.0 0.00 0.00 0.00 29 1006.4
20260504023105 65 59 7.0 8.7 0.00 0.00 0.00 27 1006.4
20260504022604 65 67 6.1 7.8 0.00 0.00 0.00 28 1006.3
20260504022104 65 67 7.0 7.8 0.00 0.00 0.00 27 1006.2
20260504021605 66 63 7.0 7.8 0.00 0.00 0.00 27 1006.3
20260504021105 66 64 7.0 7.8 0.00 0.00 0.00 27 1006.3
20260504020604 66 66 6.1 7.8 0.00 0.00 0.00 27 1006.2
20260504020104 66 66 7.0 7.8 0.00 0.00 0.00 26 1006.2
20260504015603 67 66 6.1 7.8 0.00 0.00 0.00 26 1006.1
20260504015105 67 65 7.0 7.8 0.00 0.00 0.00 26 1006.1
20260504014604 67 65 7.0 7.8 0.00 0.00 0.00 26 1006.1
20260504013605 68 69 7.0 7.8 0.00 0.00 0.00 26 1006.1
20260504013104 68 58 6.1 7.0 0.00 0.00 0.00 26 1006.1
20260504012604 68 58 5.2 6.1 0.00 0.00 0.00 26 1006.2
20260504011604 69 48 5.2 6.1 0.00 0.00 0.00 26 1006.2
20260504011105 69 52 5.2 7.0 0.00 0.00 0.00 25 1006.3
20260504010604 70 59 6.1 7.0 0.00 0.00 0.00 25 1006.3
20260504010105 70 45 5.2 7.0 0.00 0.00 0.00 25 1006.3
20260504005604 71 29 6.1 7.8 0.00 0.00 0.00 24 1006.4
20260504004604 71 39 6.1 8.7 0.00 0.00 0.00 23 1006.4
20260504004104 72 31 6.1 7.8 0.00 0.00 0.00 24 1006.5
20260504003604 72 42 6.1 7.8 0.00 0.00 0.00 23 1006.5
20260504002603 73 27 6.1 10.4 0.00 0.00 0.00 22 1006.5
20260504002108 73 31 7.8 10.4 0.00 0.00 0.00 20 1006.6
20260504001604 73 28 5.2 7.8 0.00 0.00 0.00 21 1006.6
20260504001104 73 35 5.2 7.0 0.00 0.00 0.00 21 1006.6
20260504000604 74 33 5.2 7.8 0.00 0.00 0.00 20 1006.6
20260504000105 74 20 6.1 7.0 0.00 0.00 0.00 18 1006.7
20260503235104 74 29 6.1 8.7 0.00 0.00 0.00 19 1006.7
20260503234103 74 22 4.3 7.0 0.00 0.00 0.00 20 1006.8
20260503233604 74 45 7.0 10.4 0.00 0.00 0.00 18 1006.8
20260503233105 74 48 7.8 10.4 0.00 0.00 0.00 19 1006.9
20260503232604 75 32 6.1 7.8 0.00 0.00 0.00 18 1006.9
20260503232104 75 29 6.1 7.8 0.00 0.00 0.00 19 1006.9
20260503231604 76 31 5.2 10.4 0.00 0.00 0.00 17 1007.0
20260503230105 76 45 7.0 8.7 0.00 0.00 0.00 16 1007.1
20260503225603 77 38 5.2 7.0 0.00 0.00 0.00 16 1007.1
20260503225103 77 356 5.2 7.8 0.00 0.00 0.00 14 1007.1
20260503224604 77 344 5.2 10.4 0.00 0.00 0.00 15 1007.2
20260503224104 77 342 5.2 10.4 0.00 0.00 0.00 15 1007.3
20260503223604 77 342 5.2 8.7 0.00 0.00 0.00 15 1007.4
20260503222604 76 8 5.2 7.0 0.00 0.00 0.00 15 1007.4
20260503222105 77 25 5.2 10.4 0.00 0.00 0.00 15 1007.4
20260503221603 77 49 6.1 10.4 0.00 0.00 0.00 15 1007.5
20260503221104 77 54 6.1 10.4 0.00 0.00 0.00 16 1007.6
20260503215604 79 278 2.6 2.6 0.00 0.00 0.00 12 1007.8
20260503215103 80 343 2.6 4.3 0.00 0.00 0.00 12 1007.9
20260503214604 80 262 0.9 5.2 0.00 0.00 0.00 13 1008.0
20260503214104 79 248 1.7 4.3 0.00 0.00 0.00 13 1008.1
20260503213604 79 241 0.9 2.6 0.00 0.00 0.00 14 1008.1
20260503213104 78 342 1.7 6.1 0.00 0.00 0.00 12 1008.1
20260503212604 78 290 1.7 7.0 0.00 0.00 0.00 13 1008.1
20260503212104 78 278 5.2 8.7 0.00 0.00 0.00 13 1008.2
20260503211604 78 339 2.6 7.0 0.00 0.00 0.00 13 1008.3
20260503211104 78 353 3.5 6.1 0.00 0.00 0.00 14 1008.3
20260503210605 78 305 6.1 7.8 0.00 0.00 0.00 14 1008.4
20260503205604 77 36 1.7 6.1 0.00 0.00 0.00 14 1008.6